Location: Salisbury
(35.6710°N, 80.4740°W)
Time: 05:22:38
(UTC-05:00)

Envisat - Visible Passes

Search period start: 24 February 2018 00:00
Search period end: 06 March 2018 00:00
Orbit: 764 x 766 km, 98.2° (Epoch: 23 February)

Date Brightness Start Highest point End Pass type
(mag) Time Alt. Az. Time Alt. Az. Time Alt. Az.
24 Feb 4.4 18:44:13 10° ESE 18:47:28 17° ENE 18:50:43 10° NNE visible
24 Feb 3.8 20:21:10 10° S 20:26:03 49° W 20:30:58 10° NNW visible
25 Feb 2.9 19:44:18 10° SSE 19:49:20 71° ENE 19:54:24 10° N visible
25 Feb 6.0 21:27:35 10° WSW 21:28:47 11° W 21:29:59 10° WNW visible
26 Feb 3.7 19:08:25 10° SE 19:12:48 30° ENE 19:17:11 10° N visible
26 Feb 4.9 20:47:31 10° SSW 20:51:45 27° W 20:56:00 10° NW visible
27 Feb 3.3 20:09:53 10° S 20:14:54 63° W 20:19:56 10° NNW visible
28 Feb 3.0 19:33:17 10° SSE 19:38:14 55° ENE 19:43:11 10° N visible
28 Feb 5.7 21:14:50 10° SW 21:17:32 14° W 21:20:15 10° WNW visible
01 Mar 4.0 18:57:45 10° ESE 19:01:45 24° ENE 19:05:46 10° NNE visible
01 Mar 4.5 20:35:59 10° SSW 20:40:33 34° W 20:45:09 10° NNW visible
02 Mar 3.0 19:58:41 10° S 20:03:45 82° WSW 20:08:51 10° NNW visible
03 Mar 3.3 19:22:23 10° SE 19:27:08 42° ENE 19:31:55 10° N visible
03 Mar 5.4 21:02:48 10° SW 21:06:18 19° W 21:09:49 10° NW visible
04 Mar 4.3 18:47:13 10° ESE 18:50:43 19° ENE 18:54:14 10° NNE visible
04 Mar 4.0 20:24:33 10° S 20:29:22 44° W 20:34:13 10° NNW visible
05 Mar 2.9 19:47:34 10° SSE 19:52:38 78° ENE 19:57:43 10° N visible
